Regional Weather Roundup
Issued by NWS

Home | Current Version | Previous Version | Graphics & Text | Print | Product List | Glossary On
Versions: 1 2 3 4 5 6 7 8 9 10 11 12 13 14 15 16 17 18 19 20 21 22 23 24 25 26 27 28 29 30 31 32 33 34 35 36 37 38 39 40 41 42 43 44 45 46 47 48 49 50
000
ASUS43 KLOT 250600
RWRIL

ILLINOIS REGIONAL WEATHER ROUNDUP
NATIONAL WEATHER SERVICE CHICAGO/ROMEOVILLE IL
100 AM CDT FRI JUL 25 2014

NOTE: "FAIR" INDICATES FEW OR NO CLOUDS BELOW 12,000 FEET WITH NO
SIGNIFICANT WEATHER AND/OR OBSTRUCTIONS TO VISIBILITY.

* THESE STATIONS ARE NOT UNDER NWS QUALITY CONTROL. THEY ALSO MAY NOT
  REPORT WEATHER SUCH AS PRECIPITATION OR FOG.

ILZ001-002-007-009-015-016-024-250700-
NORTHWEST ILLINOIS

CITY           SKY/WX    TMP DP  RH WIND       PRES   REMARKS
MOLINE         CLEAR     62  56  80 S6        30.04R
6HR MIN TEMP:  62; 6HR MAX TEMP:  73;

STERLING*      CLEAR     61  55  82 CALM      30.06R
$$

ILZ003-004-008-010-011-017-018-250700-
NORTH CENTRAL ILLINOIS

CITY           SKY/WX    TMP DP  RH WIND       PRES   REMARKS
ROCKFORD       CLEAR     59  49  69 W3        30.09R
6HR MIN TEMP:  59; 6HR MAX TEMP:  73;

FREEPORT*      CLEAR     57  54  88 S3        30.08R
$$

ILZ005-006-012>014-019>023-250700-
NORTHEAST ILLINOIS

CITY           SKY/WX    TMP DP  RH WIND       PRES   REMARKS
CHICAGO-OHARE  PTCLDY    59  47  64 SE6       30.04F
6HR MIN TEMP:  59; 6HR MAX TEMP:  71;

CHICAGO-MIDWAY CLEAR     65  51  60 S7        30.05F
6HR MIN TEMP:  64; 6HR MAX TEMP:  72;

AURORA         CLEAR     56  48  74 CALM      30.06R
6HR MIN TEMP:  55; 6HR MAX TEMP:  74;

WAUKEGAN       CLEAR     54  50  86 CALM      30.04F
6HR MIN TEMP:  54; 6HR MAX TEMP:  66;

DUPAGE AIRPORT CLEAR     57  49  74 S5        30.05S
6HR MIN TEMP:  56; 6HR MAX TEMP:  71;

WHEELING       CLEAR     59  48  67 CALM      30.06F
6HR MIN TEMP:  59; 6HR MAX TEMP:  70;

$$

LMZ740>746-250700-
SOUTHERN LAKE MICHIGAN

STATION/POSITION SKY/WX   TEMP    WIND        PRES    VSBY  WAVE
                          AIR SEA DIR/SP/G                  HT/PER
                          (F)     (DEG/KT/KT) (MB)    (MI)  (FT/S)
SOUTHERN BUOY              62 61  170/  6/  6 1017.8R
WAUKEGAN HARBOR            63     200/  5/  6   N/A
HARRISON CRIB              65     170/  9/ 11   N/A
CALUMET HARBOR             62     170/  3/  4 1016.5F
MICHIGAN CITY              59     140/  4/  6   N/A
MICHIGAN CITY 6N           62 69  140/  6/  8   N/A           1/ 2
ST. JOSEPH                 56 53   CALM  /  2   N/A           1
$$

ILZ025>027-034>036-040-047-049-050-058-095>099-250700-
WEST-CENTRAL ILLINOIS

CITY           SKY/WX    TMP DP  RH WIND       PRES   REMARKS
QUINCY         CLEAR     62  56  80 S5        30.04R
GALESBURG*     CLEAR     62  57  83 SE3       30.05R
MACOMB*        CLEAR     58  56  96 SE6       30.06R
$$

ILZ028>032-037-038-041>044-048-051>054-059>061-250700-
CENTRAL ILLINOIS

CITY           SKY/WX    TMP DP  RH WIND       PRES   REMARKS
PONTIAC        PTCLDY    59  55  88 CALM      30.07R
DECATUR        PTCLDY    60  55  83 CALM      30.06R
PEORIA         CLEAR     66  54  65 E3        30.06R
6HR MIN TEMP:  66; 6HR MAX TEMP:  76;

SPRINGFIELD    PTCLDY    60  56  86 CALM      30.06R
6HR MIN TEMP:  59; 6HR MAX TEMP:  77;

TAYLORVILLE    NOT AVBL
$$

ILZ033-039-045-046-055>057-062-063-250700-
EAST-CENTRAL ILLINOIS

CITY           SKY/WX    TMP DP  RH WIND       PRES   REMARKS
CHAMPAIGN      PTCLDY    59  55  87 E5        30.06S
MATTOON        CLEAR     61  56  83 CALM      30.07R
$$

ILZ079-100>102-250700-
SOUTHWEST ILLINOIS

CITY           SKY/WX    TMP DP  RH WIND       PRES   REMARKS
BELLEVILLE     CLEAR     61  60  99 CALM      30.04R
CAHOKIA*       CLEAR     60  57  89 CALM      30.04S
SPARTA*        CLEAR     61  55  82 CALM      30.05S
$$

ILZ064>066-069>071-074>076-080>082-084>086-088>090-092>094-250700-
SOUTH-CENTRAL ILLINOIS

CITY           SKY/WX    TMP DP  RH WIND       PRES   REMARKS
CARBONDALE     CLEAR     59  57  93 CALM      30.03F
6HR MIN TEMP:  59; 6HR MAX TEMP:  77;

MT. VERNON     CLEAR     57  52  82 CALM      30.06R
SALEM*         CLEAR     60  58  94 CALM      30.06S
$$

ILZ067-068-072-073-078-083-087-091-250700-
SOUTHEAST ILLINOIS

CITY           SKY/WX    TMP DP  RH WIND       PRES   REMARKS
LAWRENCEVILLE  PTCLDY    61  59  93 CALM      30.06R
HARRISBURG*    CLEAR     59  59 100 CALM      30.05F
ROBINSON*      FOG       57  56  97 CALM      30.06S VSB 3/4
CARMI*         CLEAR     61  61 100 CALM      30.03F
$$

ABBREVIATIONS USED IN REMARKS
   TC - TEMPERATURE IN CELSIUS
  WCI - WIND CHILL INDEX
   HX - HEAT INDEX
  VSB - VISIBILITY
$$




USA.gov is the U.S. government's official web portal to all federal, state and local government web resources and services.